Location: Oak Glen
(34.0495°N, 116.9470°E)
Time: 11:56:31
(UTC-07:00)

Vanguard 2 Rocket - Visible Passes

Search period start: 22 October 2017 00:00
Search period end: 01 November 2017 00:00
Orbit: 555 x 3327 km, 32.9° (Epoch: 21 October)

Date Brightness Start Highest point End Pass type
(mag) Time Alt. Az. Time Alt. Az. Time Alt. Az.
22 Oct 10.2 02:54:39 10° W 03:05:23 38° SSW 03:21:25 10° SSE visible
22 Oct 11.1 05:14:40 10° WSW 05:22:07 14° SW 05:30:29 10° SSW visible
23 Oct 10.8 04:11:33 10° WSW 04:20:59 20° SW 04:32:52 10° S visible
24 Oct 10.6 03:10:26 10° W 03:20:00 27° SSW 03:33:23 10° SSE visible
25 Oct 11.2 04:31:37 10° SW 04:35:43 11° SW 04:40:13 10° SSW visible
26 Oct 11.0 03:27:34 10° WSW 03:34:45 17° SSW 03:43:44 10° S visible
29 Oct 11.0 02:44:46 10° SW 02:48:55 12° SSW 02:53:45 10° S visible
